Location: Civry
(47.2902°N, 4.6156°E)
Time: 13:46:37
(UTC+00:00)

Cosmos 1697 Rocket - Visible Passes

Search period start: 06 August 2020 00:00
Search period end: 16 August 2020 00:00
Orbit: 834 x 842 km, 71.0° (Epoch: 06 August)

Date Brightness Start Highest point End Pass type
(mag) Time Alt. Az. Time Alt. Az. Time Alt. Az.
06 Aug 3.7 19:42:16 10° NNW 19:47:20 33° NE 19:52:22 10° ESE visible
06 Aug 3.4 21:26:07 10° NW 21:31:29 47° WSW 21:34:24 25° SSW visible
07 Aug 3.3 21:09:54 10° NW 21:15:19 50° WSW 21:18:43 22° S visible
08 Aug 3.2 20:53:41 10° NW 20:59:09 54° WSW 21:03:04 19° S visible
09 Aug 3.1 20:37:28 10° NW 20:42:58 57° WSW 20:47:29 15° S visible
10 Aug 3.1 20:21:16 10° NNW 20:26:49 62° WSW 20:31:56 12° S visible
11 Aug 3.0 20:05:04 10° NNW 20:10:38 66° WSW 20:16:11 10° SSE visible
12 Aug 3.0 19:48:51 10° NNW 19:54:27 71° WSW 20:00:01 10° SSE visible
12 Aug 5.3 21:36:17 10° W 21:37:21 11° W 21:38:25 10° WSW visible
13 Aug 2.9 19:32:39 10° NNW 19:38:17 75° WSW 19:43:52 10° SSE visible
13 Aug 5.3 21:19:26 10° WNW 21:21:14 12° W 21:23:01 10° WSW visible
14 Aug 2.9 19:16:27 10° NNW 19:22:06 80° WSW 19:27:42 10° SSE visible
14 Aug 5.2 21:02:50 10° WNW 21:05:06 13° W 21:07:23 10° WSW visible
15 Aug 5.2 20:46:19 10° WNW 20:48:59 14° W 20:51:39 10° SW visible
